DLH2WY EDDF-EDDH

Flight info

Callsign DLH2WY
Flight time 0h 48m
Altitude 35000
Route MARUN3W/25C MARUN Y150 TOLGI DCT SAS P605 NOLGO NOLGO6A
Aircraft A321/M-SDE2E3FGIJ1LORWXYZ/HB1

Departure

Time 2026-05-06 16:08
Airport Frankfurt Main Airport (EDDF)

Arrival

Time 2026-05-06 16:57
Airport Hamburg Helmut Schmidt Airport (EDDH)
Time Latitude Longitude Altitude Speed Heading
2026-05-06 15:03 50.04753 8.56881 364 ft 0 kts 294°
2026-05-06 15:53 50.04744 8.56914 362 ft 4 kts 293°
2026-05-06 15:54 50.04734 8.56945 363 ft 4 kts 292°
2026-05-06 15:54 50.04732 8.56980 362 ft 4 kts 235°
2026-05-06 15:54 50.04750 8.57003 365 ft 3 kts 204°
2026-05-06 15:54 50.04775 8.57021 364 ft 4 kts 205°
2026-05-06 15:55 50.04798 8.57037 358 ft 2 kts 205°
2026-05-06 15:55 50.04799 8.57038 358 ft 0 kts 205°
2026-05-06 15:59 50.04792 8.57033 359 ft 2 kts 205°
2026-05-06 16:00 50.04764 8.57013 356 ft 7 kts 205°
2026-05-06 16:00 50.04707 8.56972 358 ft 11 kts 205°
2026-05-06 16:00 50.04625 8.56918 359 ft 14 kts 197°
2026-05-06 16:00 50.04534 8.56885 359 ft 13 kts 193°
2026-05-06 16:01 50.04445 8.56854 366 ft 13 kts 189°
2026-05-06 16:01 50.04353 8.56830 360 ft 13 kts 192°
2026-05-06 16:01 50.04276 8.56869 360 ft 13 kts 109°
2026-05-06 16:01 50.04300 8.57002 365 ft 13 kts 69°
2026-05-06 16:02 50.04329 8.57127 365 ft 12 kts 70°
2026-05-06 16:02 50.04362 8.57265 364 ft 15 kts 69°
2026-05-06 16:02 50.04399 8.57419 364 ft 15 kts 69°
2026-05-06 16:02 50.04436 8.57572 365 ft 14 kts 70°
2026-05-06 16:03 50.04468 8.57707 369 ft 13 kts 69°
2026-05-06 16:03 50.04504 8.57859 367 ft 17 kts 70°
2026-05-06 16:03 50.04549 8.58045 365 ft 20 kts 69°
2026-05-06 16:03 50.04596 8.58239 368 ft 18 kts 69°
2026-05-06 16:04 50.04637 8.58411 371 ft 17 kts 70°
2026-05-06 16:04 50.04648 8.58545 370 ft 10 kts 123°
2026-05-06 16:04 50.04603 8.58583 369 ft 3 kts 160°
2026-05-06 16:04 50.04602 8.58584 369 ft 0 kts 160°
2026-05-06 16:07 50.04591 8.58590 371 ft 3 kts 160°
2026-05-06 16:07 50.04552 8.58612 372 ft 8 kts 160°
2026-05-06 16:07 50.04487 8.58585 371 ft 13 kts 236°
2026-05-06 16:08 50.04412 8.58276 375 ft 64 kts 249°
2026-05-06 16:08 50.04167 8.57252 367 ft 135 kts 249°
2026-05-06 16:08 50.03782 8.55646 628 ft 167 kts 250°
2026-05-06 16:08 50.03373 8.53980 1520 ft 164 kts 251°
2026-05-06 16:09 50.02959 8.52272 2142 ft 176 kts 252°
2026-05-06 16:09 50.02452 8.50421 2552 ft 195 kts 240°
2026-05-06 16:09 50.01514 8.48876 3190 ft 201 kts 216°
2026-05-06 16:09 50.00219 8.48034 3850 ft 206 kts 193°
2026-05-06 16:10 49.98808 8.47711 4559 ft 204 kts 191°
2026-05-06 16:10 49.97397 8.47400 5175 ft 206 kts 191°
2026-05-06 16:10 49.95979 8.47041 5767 ft 206 kts 197°
2026-05-06 16:10 49.94554 8.46391 6070 ft 224 kts 199°
2026-05-06 16:11 49.92991 8.45651 6500 ft 239 kts 202°
2026-05-06 16:11 49.91585 8.44290 7190 ft 242 kts 228°
2026-05-06 16:11 49.90748 8.42032 7963 ft 246 kts 254°
2026-05-06 16:11 49.90693 8.39373 8757 ft 253 kts 282°
2026-05-06 16:12 49.91498 8.36929 9601 ft 262 kts 308°
2026-05-06 16:12 49.93016 8.35314 10309 ft 273 kts 335°
2026-05-06 16:12 49.94949 8.34708 10569 ft 299 kts
2026-05-06 16:12 49.97028 8.35592 10764 ft 325 kts 26°
2026-05-06 16:13 49.99081 8.37340 10954 ft 345 kts 28°
2026-05-06 16:13 50.01188 8.39225 11484 ft 352 kts 29°
2026-05-06 16:13 50.03342 8.41084 12098 ft 357 kts 27°
2026-05-06 16:13 50.05552 8.42889 12783 ft 360 kts 26°
2026-05-06 16:14 50.07764 8.44629 13457 ft 363 kts 25°
2026-05-06 16:14 50.10064 8.46415 14019 ft 367 kts 25°
2026-05-06 16:14 50.12358 8.48198 14654 ft 370 kts 26°
2026-05-06 16:14 50.14636 8.49979 15227 ft 374 kts 26°
2026-05-06 16:15 50.17001 8.51839 15818 ft 377 kts 26°
2026-05-06 16:15 50.19350 8.53702 16427 ft 381 kts 26°
2026-05-06 16:15 50.21725 8.55594 17004 ft 385 kts 26°
2026-05-06 16:15 50.24113 8.57503 17577 ft 388 kts 26°
2026-05-06 16:16 50.26531 8.59436 18119 ft 392 kts 26°
2026-05-06 16:16 50.28964 8.61380 18621 ft 394 kts 26°
2026-05-06 16:16 50.31421 8.63341 19128 ft 397 kts 26°
2026-05-06 16:16 50.33890 8.65315 19638 ft 400 kts 26°
2026-05-06 16:17 50.36343 8.67281 20098 ft 403 kts 26°
2026-05-06 16:17 50.38880 8.69318 20581 ft 406 kts 26°
2026-05-06 16:17 50.41397 8.71350 21074 ft 408 kts 26°
2026-05-06 16:17 50.43897 8.73361 21559 ft 411 kts 26°
2026-05-06 16:18 50.46448 8.75410 22045 ft 413 kts 26°
2026-05-06 16:18 50.49015 8.77471 22513 ft 415 kts 26°
2026-05-06 16:18 50.51594 8.79546 22997 ft 418 kts 26°
2026-05-06 16:18 50.54188 8.81637 23448 ft 420 kts 26°
2026-05-06 16:19 50.56808 8.83752 23769 ft 426 kts 25°
2026-05-06 16:19 50.59460 8.85897 24077 ft 431 kts 25°
2026-05-06 16:19 50.62136 8.88072 24444 ft 434 kts 26°
2026-05-06 16:19 50.64826 8.90269 24846 ft 437 kts 26°
2026-05-06 16:20 50.67537 8.92484 25229 ft 440 kts 26°
2026-05-06 16:20 50.70260 8.94710 25608 ft 442 kts 26°
2026-05-06 16:20 50.72998 8.96948 25980 ft 445 kts 26°
2026-05-06 16:20 50.75762 8.99201 26349 ft 448 kts 26°
2026-05-06 16:21 50.78537 9.01462 26715 ft 450 kts 26°
2026-05-06 16:21 50.81327 9.03736 27082 ft 453 kts 26°
2026-05-06 16:21 50.84132 9.06027 27449 ft 455 kts 27°
2026-05-06 16:21 50.86959 9.08345 27813 ft 458 kts 27°
2026-05-06 16:22 50.89792 9.10676 28165 ft 461 kts 27°
2026-05-06 16:22 50.92645 9.13018 28528 ft 463 kts 27°
2026-05-06 16:22 50.95516 9.15372 28882 ft 466 kts 27°
2026-05-06 16:22 50.98404 9.17736 29241 ft 469 kts 27°
2026-05-06 16:23 51.01313 9.20115 29498 ft 473 kts 27°
2026-05-06 16:23 51.04251 9.22516 29801 ft 476 kts 27°
2026-05-06 16:23 51.07207 9.24935 30081 ft 479 kts 27°
2026-05-06 16:23 51.10214 9.27239 30357 ft 481 kts 21°
2026-05-06 16:24 51.13388 9.28926 30613 ft 481 kts 13°
2026-05-06 16:24 51.16658 9.30073 30871 ft 482 kts 11°
2026-05-06 16:24 51.19944 9.31194 31122 ft 484 kts 11°
2026-05-06 16:24 51.23233 9.32325 31452 ft 483 kts 10°
2026-05-06 16:25 51.26512 9.33462 31818 ft 482 kts 10°
2026-05-06 16:25 51.29789 9.34605 32168 ft 481 kts 11°
2026-05-06 16:25 51.33051 9.35746 32522 ft 479 kts 11°
2026-05-06 16:25 51.36307 9.36884 32767 ft 479 kts 11°
2026-05-06 16:26 51.39529 9.38013 32813 ft 468 kts 10°
2026-05-06 16:26 51.42685 9.39114 32809 ft 462 kts 10°
2026-05-06 16:26 51.48934 9.41306 32810 ft 457 kts 11°
2026-05-06 16:27 51.55106 9.43463 32810 ft 457 kts 10°
2026-05-06 16:27 51.61313 9.45637 32809 ft 456 kts 11°
2026-05-06 16:28 51.67518 9.47834 32826 ft 456 kts 11°
2026-05-06 16:28 51.73714 9.50023 32830 ft 456 kts 11°
2026-05-06 16:29 51.79904 9.52209 32829 ft 455 kts 11°
2026-05-06 16:29 51.85847 9.55686 32835 ft 457 kts 26°
2026-05-06 16:30 51.90589 9.59634 32832 ft 457 kts 26°
2026-05-06 16:30 51.97168 9.65088 32674 ft 458 kts 26°
2026-05-06 16:31 51.99991 9.67430 32254 ft 453 kts 26°
2026-05-06 16:31 52.02785 9.69742 31737 ft 449 kts 26°
2026-05-06 16:31 52.05555 9.72039 31211 ft 445 kts 26°
2026-05-06 16:31 52.08297 9.74321 30702 ft 440 kts 26°
2026-05-06 16:32 52.11005 9.76579 30197 ft 436 kts 26°
2026-05-06 16:32 52.13693 9.78828 29675 ft 432 kts 26°
2026-05-06 16:32 52.16351 9.81063 29151 ft 427 kts 26°
2026-05-06 16:32 52.18969 9.83272 28683 ft 421 kts 26°
2026-05-06 16:33 52.21555 9.85455 28210 ft 416 kts 26°
2026-05-06 16:33 52.24116 9.87577 27759 ft 410 kts 22°
2026-05-06 16:33 52.26764 9.89173 27341 ft 402 kts 13°
2026-05-06 16:34 52.32169 9.91528 26510 ft 402 kts 13°
2026-05-06 16:34 52.34864 9.92707 26116 ft 401 kts 13°
2026-05-06 16:34 52.37548 9.93885 25695 ft 398 kts 14°
2026-05-06 16:34 52.40215 9.95052 25304 ft 395 kts 14°
2026-05-06 16:35 52.42861 9.96216 24907 ft 393 kts 14°
2026-05-06 16:35 52.45490 9.97384 24504 ft 390 kts 14°
2026-05-06 16:35 52.48099 9.98548 24108 ft 388 kts 14°
2026-05-06 16:35 52.50702 9.99712 23700 ft 386 kts 14°
2026-05-06 16:36 52.53287 10.00863 23272 ft 384 kts 14°
2026-05-06 16:36 52.55861 10.02003 22835 ft 382 kts 14°
2026-05-06 16:36 52.58424 10.03138 22421 ft 381 kts 14°
2026-05-06 16:36 52.60974 10.04265 21995 ft 379 kts 14°
2026-05-06 16:37 52.63512 10.05398 21558 ft 377 kts 14°
2026-05-06 16:37 52.66033 10.06533 21135 ft 375 kts 14°
2026-05-06 16:37 52.68510 10.07654 20696 ft 373 kts 14°
2026-05-06 16:37 52.71009 10.08781 20270 ft 371 kts 14°
2026-05-06 16:38 52.73495 10.09896 19845 ft 370 kts 14°
2026-05-06 16:38 52.75970 10.11002 19399 ft 368 kts 13°
2026-05-06 16:38 52.78469 10.11756 18968 ft 364 kts
2026-05-06 16:38 52.80990 10.11879 18541 ft 361 kts 359°
2026-05-06 16:39 52.83497 10.11949 18106 ft 359 kts 359°
2026-05-06 16:39 52.85985 10.12030 17640 ft 356 kts 360°
2026-05-06 16:39 52.88460 10.12118 17204 ft 354 kts 360°
2026-05-06 16:39 52.90916 10.12207 16786 ft 352 kts
2026-05-06 16:40 52.93361 10.12291 16351 ft 350 kts 360°
2026-05-06 16:40 52.95786 10.12368 15928 ft 348 kts 360°
2026-05-06 16:40 52.98200 10.12444 15498 ft 346 kts
2026-05-06 16:40 53.00599 10.12526 15074 ft 344 kts
2026-05-06 16:41 53.02982 10.12611 14651 ft 341 kts
2026-05-06 16:41 53.05349 10.12694 14230 ft 339 kts
2026-05-06 16:41 53.07707 10.12775 13810 ft 338 kts
2026-05-06 16:41 53.10049 10.12853 13351 ft 335 kts
2026-05-06 16:42 53.12372 10.12930 12940 ft 333 kts
2026-05-06 16:42 53.14684 10.13003 12521 ft 331 kts
2026-05-06 16:42 53.16982 10.13077 12126 ft 329 kts
2026-05-06 16:42 53.19259 10.13153 11807 ft 326 kts
2026-05-06 16:43 53.21521 10.13226 11407 ft 324 kts
2026-05-06 16:43 53.23013 10.13272 11142 ft 324 kts
2026-05-06 16:43 53.25254 10.13338 10740 ft 321 kts
2026-05-06 16:43 53.27469 10.13405 10347 ft 316 kts
2026-05-06 16:44 53.29623 10.13474 10194 ft 304 kts
2026-05-06 16:44 53.31714 10.13548 10018 ft 297 kts
2026-05-06 16:44 53.33743 10.13622 9822 ft 287 kts
2026-05-06 16:44 53.35726 10.13691 9475 ft 282 kts
2026-05-06 16:45 53.38331 10.13451 8951 ft 280 kts 348°
2026-05-06 16:45 53.39554 10.12763 8678 ft 281 kts 337°
2026-05-06 16:45 53.41188 10.10992 8250 ft 281 kts 320°
2026-05-06 16:45 53.42537 10.08582 7746 ft 285 kts 313°
2026-05-06 16:46 53.43853 10.06113 7312 ft 283 kts 314°
2026-05-06 16:46 53.45150 10.03693 7121 ft 273 kts 314°
2026-05-06 16:46 53.46390 10.01385 6980 ft 260 kts 314°
2026-05-06 16:46 53.47579 9.99176 6865 ft 249 kts 314°
2026-05-06 16:47 53.48624 9.96907 6627 ft 246 kts 298°
2026-05-06 16:47 53.48986 9.94115 6298 ft 248 kts 267°
2026-05-06 16:47 53.48489 9.91378 5935 ft 248 kts 237°
2026-05-06 16:47 53.47416 9.89124 5669 ft 247 kts 229°
2026-05-06 16:48 53.46321 9.86940 5401 ft 248 kts 230°
2026-05-06 16:48 53.45194 9.84689 5114 ft 249 kts 229°
2026-05-06 16:48 53.44082 9.82464 4828 ft 249 kts 229°
2026-05-06 16:48 53.42987 9.80276 4488 ft 248 kts 229°
2026-05-06 16:49 53.41894 9.78054 4138 ft 247 kts 234°
2026-05-06 16:49 53.41285 9.75406 3978 ft 241 kts 269°
2026-05-06 16:49 53.41578 9.72680 3993 ft 238 kts 301°
2026-05-06 16:49 53.42480 9.70511 4012 ft 219 kts 317°
2026-05-06 16:50 53.43716 9.69288 4001 ft 203 kts 348°
2026-05-06 16:50 53.45088 9.68761 3867 ft 201 kts 353°
2026-05-06 16:50 53.46431 9.68530 3624 ft 187 kts
2026-05-06 16:50 53.47637 9.68986 3362 ft 170 kts 26°
2026-05-06 16:51 53.48618 9.69978 3113 ft 160 kts 43°
2026-05-06 16:51 53.49339 9.71285 3015 ft 145 kts 51°
2026-05-06 16:51 53.49975 9.72552 3007 ft 139 kts 52°
2026-05-06 16:51 53.50591 9.73782 3022 ft 137 kts 52°
2026-05-06 16:52 53.51200 9.75000 3016 ft 136 kts 52°
2026-05-06 16:52 53.51807 9.76216 3011 ft 136 kts 52°
2026-05-06 16:52 53.52417 9.77439 2959 ft 137 kts 51°
2026-05-06 16:52 53.53028 9.78663 2847 ft 137 kts 52°
2026-05-06 16:53 53.53637 9.79885 2670 ft 136 kts 51°
2026-05-06 16:53 53.54239 9.81092 2500 ft 134 kts 52°
2026-05-06 16:53 53.54834 9.82284 2319 ft 132 kts 51°
2026-05-06 16:53 53.55426 9.83473 2136 ft 133 kts 52°
2026-05-06 16:54 53.56017 9.84665 1959 ft 132 kts 52°
2026-05-06 16:54 53.56603 9.85844 1784 ft 131 kts 50°
2026-05-06 16:54 53.57187 9.87017 1600 ft 131 kts 50°
2026-05-06 16:54 53.57772 9.88193 1417 ft 132 kts 51°
2026-05-06 16:55 53.58357 9.89371 1227 ft 131 kts 51°
2026-05-06 16:55 53.58940 9.90547 1039 ft 130 kts 51°
2026-05-06 16:55 53.59518 9.91712 851 ft 129 kts 50°
2026-05-06 16:55 53.60101 9.92886 670 ft 130 kts 50°
2026-05-06 16:56 53.60686 9.94067 486 ft 132 kts 49°
2026-05-06 16:56 53.61273 9.95251 317 ft 131 kts 50°
2026-05-06 16:56 53.61853 9.96424 134 ft 127 kts 49°
2026-05-06 16:56 53.62386 9.97504 41 ft 108 kts 50°
2026-05-06 16:57 53.62787 9.98315 43 ft 76 kts 50°
2026-05-06 16:57 53.63078 9.98904 46 ft 57 kts 50°
2026-05-06 16:57 53.63251 9.99263 47 ft 29 kts 56°
2026-05-06 16:57 53.63290 9.99526 47 ft 16 kts 96°
2026-05-06 16:58 53.63279 9.99637 48 ft 2 kts 100°
2026-05-06 16:58 53.63279 9.99639 48 ft 0 kts 100°
2026-05-06 16:58 53.63276 9.99660 49 ft 5 kts 100°
2026-05-06 16:59 53.63278 9.99749 49 ft 9 kts 73°
2026-05-06 16:59 53.63319 9.99844 49 ft 11 kts 50°
2026-05-06 16:59 53.63375 9.99955 49 ft 13 kts 50°
2026-05-06 16:59 53.63428 10.00068 49 ft 11 kts 62°
2026-05-06 17:00 53.63406 10.00153 49 ft 9 kts 157°
2026-05-06 17:00 53.63337 10.00164 49 ft 11 kts 176°
2026-05-06 17:00 53.63264 10.00173 49 ft 11 kts 176°
2026-05-06 17:00 53.63203 10.00200 49 ft 7 kts 128°
2026-05-06 17:01 53.63203 10.00282 49 ft 7 kts 86°
2026-05-06 17:01 53.63205 10.00341 49 ft 3 kts 86°
2026-05-06 17:01 53.63206 10.00363 49 ft 1 kts 86°
2026-05-06 17:01 53.63206 10.00368 49 ft 0 kts 86°